Temp
-6 -6 -6 -5 -5 -5 -5 -6 -7 -7 -8 -7 -7 -6 -7 -7 -7 -6 -6 -6 -5 -5 -5 -5 -4 -4 -4 -4 -4 -4 -3 -3 -4 -4 -4 -4 -4 -4 -4 -4 -4 -3 -3 -3 -3 -3 -3 -4 -4
-6 -6 -6 -5 -5 -5 -5 -7 -7 -7 -8 -8 -7 -7 -8 -7 -6 -5 -6 -6 -6 -5 -5 -5 -4 -4 -4 -4 -4 -4 -4 -4 -4 -4 -4 -4 -4 -4 -4 -4 -4 -3 -3 -3 -4 -4 -4 -4 -4
-5 -5 -5 -5 -5 -4 -5 -7 -8 -7 -8 -8 -7 -6 -5 -6 -6 -5 -5 -5 -5 -6 -6 -5 -4 -4 -4 -4 -4 -4 -4 -4 -4 -4 -4 -4 -4 -4 -4 -4 -4 -4 -4 -4 -4 -4 -3 -4 -4
-5 -5 -5 -4 -4 -5 -6 -6 -7 -8 -8 -8 -7 -7 -6 -6 -6 -5 -5 -5 -6 -6 -6 -5 -5 -5 -4 -5 -5 -4 -4 -4 -4 -4 -4 -4 -4 -4 -4 -4 -4 -4 -4 -4 -4 -4 -4 -3 -4
-5 -5 -4 -4 -4 -5 -5 -6 -6 -7 -8 -7 -7 -7 -6 -6 -5 -6 -6 -6 -6 -6 -6 -6 -5 -5 -5 -5 -5 -4 -4 -4 -4 -4 -4 -4 -4 -5 -5 -4 -4 -4 -4 -4 -4 -4 -4 -4 -4
-5 -5 -4 -4 -4 -5 -5 -6 -6 -6 -7 -8 -7 -7 -7 -6 -6 -6 -6 -6 -6 -6 -6 -6 -6 -5 -5 -5 -5 -5 -4 -4 -4 -4 -4 -4 -5 -5 -5 -5 -4 -4 -4 -4 -4 -4 -4 -4 -4
-5 -4 -4 -4 -4 -5 -5 -6 -6 -6 -6 -7 -7 -7 -7 -6 -5 -6 -6 -5 -5 -6 -6 -6 -6 -6 -6 -5 -6 -6 -5 -4 -5 -5 -5 -5 -5 -5 -5 -5 -4 -4 -4 -4 -4 -4 -4 -4 -4
-5 -4 -3 -4 -4 -4 -5 -5 -6 -6 -6 -7 -8 -7 -7 -7 -6 -5 -5 -5 -5 -6 -6 -6 -6 -6 -6 -6 -6 -6 -5 -5 -5 -5 -5 -5 -5 -5 -5 -5 -5 -4 -4 -4 -4 -4 -4 -4 -4
-4 -3 -3 -4 -5 -5 -5 -5 -5 -6 -6 -7 -7 -7 -7 -7 -7 -6 -6 -5 -5 -6 -6 -6 -7 -7 -6 -6 -6 -6 -6 -5 -5 -5 -5 -5 -5 -5 -5 -5 -5 -5 -4 -4 -4 -4 -4 -4 -4
-5 -4 -4 -5 -4 -4 -5 -4 -5 -5 -5 -6 -7 -7 -7 -7 -7 -7 -6 -6 -5 -5 -6 -6 -7 -8 -7 -6 -6 -6 -6 -6 -6 -6 -6 -6 -6 -5 -5 -5 -5 -5 -5 -5 -4 -4 -4 -5 -5
-5 -5 -5 -5 -5 -5 -4 -5 -5 -5 -5 -6 -6 -7 -8 -7 -7 -6 -6 -6 -6 -7 -5 -6 -7 -7 -7 -8 -7 -6 -6 -6 -6 -6 -6 -6 -6 -6 -6 -6 -6 -5 -5 -5 -5 -5 -5 -5 -5
-6 -6 -5 -5 -5 -5 -5 -5 -5 -5 -5 -6 -6 -7 -8 -7 -8 -8 -7 -7 -6 -6 -7 -7 -7 -8 -8 -8 -8 -7 -7 -7 -6 -7 -6 -6 -6 -6 -6 -6 -6 -6 -5 -5 -5 -6 -5 -5 -5
-6 -6 -6 -5 -5 -6 -5 -5 -5 -6 -6 -6 -7 -7 -7 -8 -8 -8 -8 -8 -8 -7 -7 -7 -7 -7 -8 -8 -7 -7 -7 -8 -7 -7 -7 -7 -6 -6 -6 -6 -6 -6 -6 -6 -6 -6 -6 -6 -5
-7 -7 -7 -7 -7 -6 -6 -6 -5 -6 -7 -7 -7 -8 -9 -8 -9 -8 -8 -8 -8 -7 -8 -8 -7 -7 -6 -7 -8 -7 -7 -7 -7 -7 -7 -7 -7 -6 -7 -7 -7 -7 -7 -7 -7 -7 -6 -6 -6
-7 -7 -7 -8 -8 -7 -7 -6 -6 -6 -6 -7 -7 -7 -8 -10 -9 -9 -9 -9 -8 -8 -7 -8 -7 -7 -7 -6 -6 -7 -7 -7 -7 -8 -8 -8 -7 -7 -7 -7 -7 -7 -8 -8 -8 -7 -7 -6 -6
-8 -8 -8 -9 -9 -9 -8 -6 -7 -7 -7 -7 -7 -8 -8 -9 -10 -9 -10 -9 -9 -9 -9 -8 -7 -7 -7 -7 -7 -6 -7 -8 -7 -8 -8 -8 -8 -7 -7 -7 -8 -8 -8 -8 -8 -8 -7 -6 -6
-9 -9 -9 -9 -10 -10 -10 -8 -9 -9 -9 -8 -8 -8 -9 -8 -9 -10 -10 -10 -10 -10 -10 -9 -8 -7 -7 -7 -7 -7 -7 -8 -7 -7 -8 -8 -8 -8 -7 -7 -8 -8 -9 -9 -8 -8 -7 -7 -6
-10 -11 -10 -10 -13 -13 -13 -11 -12 -12 -11 -11 -11 -10 -9 -10 -9 -10 -10 -10 -11 -10 -10 -10 -10 -9 -7 -8 -8 -8 -7 -7 -7 -7 -7 -7 -8 -8 -8 -8 -8 -8 -9 -9 -9 -8 -7 -7 -6
-12 -13 -14 -15 -15 -15 -15 -14 -13 -13 -14 -14 -14 -13 -12 -10 -11 -11 -10 -11 -11 -11 -11 -11 -11 -10 -10 -8 -8 -8 -8 -8 -8 -8 -8 -7 -8 -8 -8 -8 -8 -9 -9 -9 -9 -8 -8 -7 -7
-16 -16 -16 -15 -16 -16 -16 -15 -14 -14 -14 -14 -14 -14 -14 -13 -12 -12 -11 -11 -12 -12 -12 -11 -11 -11 -10 -10 -9 -8 -8 -9 -8 -8 -8 -8 -8 -8 -8 -8 -9 -9 -9 -10 -9 -9 -8 -8 -8
-15 -15 -16 -15 -15 -15 -15 -14 -14 -14 -16 -15 -15 -14 -13 -14 -13 -13 -13 -12 -12 -13 -13 -12 -12 -12 -12 -11 -10 -9 -8 -9 -9 -8 -8 -9 -9 -9 -8 -9 -9 -10 -10 -10 -9 -9 -8 -8 -8
-14 -16 -15 -15 -15 -15 -16 -14 -13 -15 -16 -15 -15 -16 -16 -15 -14 -14 -13 -13 -13 -13 -13 -13 -13 -13 -13 -12 -11 -10 -9 -9 -9 -9 -8 -9 -9 -9 -9 -9 -9 -10 -10 -10 -10 -9 -8 -8 -8
-15 -16 -16 -16 -16 -15 -15 -16 -12 -16 -16 -16 -17 -16 -16 -16 -16 -17 -17 -14 -13 -14 -13 -13 -14 -14 -13 -13 -12 -11 -11 -10 -10 -9 -8 -8 -9 -9 -10 -10 -9 -10 -10 -10 -10 -10 -9 -9 -9
-15 -15 -15 -16 -16 -15 -16 -16 -13 -16 -16 -17 -17 -17 -17 -17 -18 -18 -18 -18 -14 -15 -14 -14 -14 -14 -14 -14 -13 -12 -11 -11 -10 -10 -9 -9 -9 -9 -9 -10 -9 -9 -10 -10 -10 -10 -10 -9 -9
-15 -15 -15 -15 -15 -15 -16 -15 -14 -16 -17 -17 -17 -18 -17 -17 -17 -18 -18 -18 -18 -17 -16 -15 -16 -15 -14 -14 -14 -13 -12 -11 -11 -11 -11 -9 -9 -9 -9 -9 -9 -8 -10 -10 -10 -10 -10 -9 -9
-15 -16 -16 -16 -16 -16 -16 -15 -14 -16 -16 -17 -17 -17 -18 -18 -18 -18 -18 -19 -19 -18 -17 -17 -16 -17 -16 -14 -14 -14 -13 -11 -11 -11 -10 -10 -9 -9 -9 -9 -9 -9 -10 -10 -10 -11 -11 -10 -9
-16 -16 -17 -17 -16 -16 -16 -15 -15 -16 -17 -17 -17 -17 -17 -17 -18 -18 -18 -18 -19 -18 -17 -18 -17 -17 -16 -16 -15 -14 -13 -12 -11 -11 -10 -9 -9 -9 -9 -9 -8 -9 -10 -10 -11 -10 -11 -10 -10
-16 -17 -18 -18 -17 -16 -16 -16 -16 -17 -18 -17 -17 -17 -18 -18 -17 -18 -18 -18 -18 -18 -18 -18 -18 -17 -17 -16 -16 -15 -14 -13 -11 -11 -11 -10 -8 -8 -9 -9 -8 -9 -9 -10 -10 -10 -11 -10 -10
-17 -17 -17 -18 -18 -18 -16 -16 -18 -18 -17 -17 -17 -17 -17 -17 -17 -18 -18 -18 -18 -18 -17 -17 -18 -18 -17 -16 -16 -15 -15 -13 -11 -12 -11 -10 -9 -9 -9 -9 -8 -9 -9 -9 -10 -11 -11 -11 -10
-16 -17 -17 -18 -17 -18 -18 -15 -18 -19 -20 -19 -17 -17 -17 -17 -17 -18 -17 -17 -17 -16 -17 -17 -17 -18 -18 -16 -17 -16 -14 -13 -11 -12 -11 -10 -9 -9 -10 -9 -9 -9 -8 -9 -10 -10 -12 -11 -10
Height
5881 5884 5886 5889 5894 5895 5898 5902 5899 5897 5895 5895 5895 5895 5897 5900 5903 5908 5906 5907 5908 5908 5908 5909 5910 5909 5908 5909 5909 5909 5911 5911 5911 5911 5911 5912 5913 5913 5914 5913 5913 5912 5911 5911 5909 5908 5906 5904 5902
5878 5881 5883 5886 5889 5893 5897 5897 5897 5895 5893 5891 5894 5894 5895 5899 5901 5903 5904 5905 5907 5908 5908 5908 5909 5908 5908 5908 5909 5909 5910 5911 5911 5911 5912 5913 5914 5914 5914 5913 5913 5912 5911 5910 5909 5908 5905 5904 5902
5876 5878 5879 5881 5885 5891 5895 5893 5889 5892 5891 5885 5886 5888 5891 5895 5898 5901 5904 5904 5905 5906 5908 5908 5907 5907 5907 5908 5908 5910 5911 5911 5911 5911 5912 5914 5914 5914 5914 5914 5913 5912 5912 5910 5909 5907 5905 5903 5902
5873 5875 5876 5877 5883 5887 5890 5887 5887 5888 5887 5881 5881 5885 5890 5892 5894 5898 5903 5903 5904 5905 5908 5908 5907 5907 5907 5907 5908 5909 5910 5911 5912 5912 5912 5913 5914 5914 5914 5913 5912 5912 5911 5910 5908 5906 5904 5903 5901
5869 5870 5871 5874 5880 5883 5883 5882 5882 5883 5881 5880 5876 5877 5884 5888 5890 5892 5898 5900 5901 5902 5905 5906 5906 5905 5906 5906 5907 5908 5909 5910 5911 5911 5911 5912 5912 5913 5913 5912 5911 5911 5910 5909 5907 5904 5903 5901 5900
5864 5866 5867 5870 5874 5875 5876 5876 5876 5877 5876 5874 5874 5874 5878 5882 5886 5888 5891 5896 5896 5898 5899 5902 5903 5903 5904 5905 5907 5907 5908 5909 5909 5909 5909 5910 5911 5911 5911 5911 5910 5909 5908 5907 5906 5904 5902 5900 5898
5856 5858 5860 5863 5866 5868 5870 5870 5871 5873 5873 5870 5869 5868 5868 5872 5876 5879 5882 5888 5890 5893 5894 5897 5899 5899 5901 5903 5904 5906 5907 5908 5908 5908 5908 5909 5909 5909 5909 5909 5909 5908 5907 5906 5904 5903 5901 5899 5895
5848 5849 5852 5854 5857 5861 5863 5864 5865 5866 5868 5866 5863 5860 5863 5864 5869 5871 5873 5878 5883 5885 5888 5891 5894 5897 5898 5900 5902 5904 5905 5906 5906 5906 5906 5907 5908 5908 5908 5908 5907 5906 5905 5903 5903 5901 5900 5897 5893
5841 5842 5845 5846 5845 5850 5852 5853 5854 5856 5859 5859 5858 5854 5856 5857 5860 5863 5865 5868 5876 5882 5883 5886 5889 5892 5894 5895 5898 5900 5902 5903 5904 5903 5904 5905 5905 5905 5906 5905 5905 5904 5903 5901 5900 5900 5898 5895 5890
5832 5834 5835 5836 5834 5837 5840 5843 5847 5846 5846 5849 5851 5846 5844 5848 5849 5852 5857 5860 5864 5872 5878 5880 5883 5886 5888 5889 5892 5895 5898 5900 5901 5901 5901 5902 5903 5903 5903 5903 5903 5901 5900 5899 5898 5897 5896 5892 5889
5825 5825 5825 5826 5825 5826 5830 5834 5836 5838 5840 5840 5843 5842 5835 5838 5840 5842 5845 5852 5855 5862 5865 5869 5875 5880 5882 5885 5887 5889 5892 5895 5897 5897 5898 5899 5899 5900 5901 5901 5900 5899 5897 5896 5895 5894 5892 5890 5887
5815 5815 5813 5813 5813 5814 5816 5820 5824 5826 5827 5828 5831 5834 5830 5828 5830 5833 5836 5842 5844 5850 5850 5859 5861 5868 5875 5879 5881 5884 5886 5888 5891 5892 5893 5895 5895 5896 5897 5898 5897 5896 5894 5893 5892 5891 5888 5887 5883
5803 5802 5802 5802 5802 5801 5801 5802 5807 5812 5812 5813 5815 5820 5822 5820 5820 5821 5824 5830 5835 5839 5845 5850 5858 5858 5863 5869 5875 5878 5880 5882 5885 5886 5887 5890 5890 5892 5893 5893 5893 5892 5891 5889 5889 5887 5884 5883 5879
5791 5790 5790 5790 5788 5785 5785 5787 5786 5795 5794 5795 5799 5801 5807 5808 5808 5807 5809 5813 5819 5826 5831 5841 5848 5851 5854 5857 5863 5868 5873 5874 5876 5879 5881 5883 5884 5887 5889 5889 5888 5888 5887 5885 5885 5882 5880 5878 5875
5776 5776 5775 5776 5772 5769 5767 5773 5774 5773 5776 5780 5782 5785 5787 5793 5792 5796 5794 5798 5801 5809 5816 5824 5835 5842 5845 5848 5852 5858 5862 5865 5867 5870 5873 5877 5878 5881 5883 5884 5884 5884 5883 5881 5880 5877 5876 5874 5871
5758 5757 5757 5757 5753 5752 5747 5756 5760 5756 5755 5761 5768 5770 5775 5777 5780 5782 5787 5784 5787 5790 5798 5806 5813 5827 5835 5838 5844 5847 5851 5855 5859 5864 5867 5870 5872 5875 5877 5879 5879 5880 5879 5877 5876 5873 5871 5869 5866
5739 5736 5735 5741 5736 5734 5730 5735 5737 5740 5738 5741 5745 5751 5755 5762 5770 5774 5774 5775 5775 5777 5780 5788 5795 5805 5821 5828 5831 5838 5841 5845 5850 5855 5859 5862 5864 5868 5871 5873 5874 5875 5874 5873 5871 5868 5868 5864 5861
5722 5718 5716 5719 5726 5714 5714 5715 5718 5722 5722 5722 5722 5726 5734 5743 5751 5757 5762 5766 5763 5767 5769 5773 5781 5788 5797 5815 5822 5825 5831 5836 5841 5846 5851 5854 5857 5860 5863 5867 5869 5869 5869 5867 5865 5863 5862 5860 5859
5704 5703 5700 5705 5706 5696 5700 5695 5705 5709 5703 5702 5703 5705 5709 5721 5732 5735 5743 5751 5751 5753 5757 5760 5765 5774 5782 5794 5809 5815 5820 5829 5831 5837 5840 5844 5847 5852 5856 5860 5863 5863 5863 5861 5859 5858 5857 5856 5854
5697 5694 5696 5697 5694 5687 5688 5689 5697 5694 5690 5687 5686 5688 5691 5698 5709 5717 5721 5728 5735 5740 5742 5746 5751 5758 5768 5778 5792 5802 5808 5815 5819 5824 5828 5834 5839 5845 5849 5852 5857 5857 5857 5855 5853 5853 5853 5850 5848
5692 5689 5689 5686 5685 5684 5678 5681 5681 5682 5672 5671 5672 5669 5673 5677 5685 5697 5704 5709 5714 5724 5730 5733 5737 5743 5752 5764 5773 5784 5793 5800 5806 5811 5821 5827 5830 5836 5840 5844 5850 5850 5851 5850 5849 5847 5845 5844 5842
5686 5685 5681 5678 5676 5675 5669 5668 5677 5669 5664 5661 5658 5656 5655 5655 5660 5670 5686 5691 5698 5706 5712 5719 5723 5729 5738 5748 5760 5769 5781 5789 5799 5801 5811 5813 5816 5823 5830 5835 5842 5844 5844 5844 5843 5841 5838 5838 5836
5680 5676 5673 5670 5667 5664 5660 5657 5663 5658 5655 5652 5650 5647 5646 5645 5645 5650 5656 5671 5680 5686 5692 5698 5703 5710 5721 5730 5743 5756 5769 5776 5783 5789 5793 5800 5810 5816 5821 5827 5832 5835 5835 5837 5837 5835 5833 5833 5831
5670 5667 5665 5661 5658 5652 5656 5651 5651 5652 5648 5646 5644 5641 5639 5639 5639 5639 5644 5651 5665 5668 5674 5680 5684 5692 5699 5711 5725 5738 5753 5763 5772 5782 5785 5795 5800 5808 5812 5817 5821 5825 5827 5830 5830 5827 5827 5826 5825
5665 5659 5652 5649 5648 5644 5644 5637 5641 5646 5643 5639 5637 5635 5634 5632 5631 5632 5633 5638 5650 5653 5660 5664 5668 5674 5682 5695 5706 5720 5734 5748 5762 5774 5778 5786 5792 5796 5802 5807 5808 5812 5819 5821 5822 5821 5821 5820 5819
5662 5656 5650 5637 5635 5633 5632 5626 5631 5631 5631 5628 5626 5626 5625 5624 5624 5624 5624 5627 5631 5641 5646 5649 5654 5661 5667 5678 5692 5704 5718 5729 5749 5762 5770 5776 5784 5789 5792 5795 5798 5803 5809 5812 5813 5813 5814 5814 5813
5652 5647 5642 5631 5628 5618 5618 5619 5619 5619 5618 5617 5615 5614 5615 5616 5616 5615 5616 5617 5620 5625 5631 5637 5642 5650 5656 5660 5677 5689 5703 5715 5735 5751 5761 5766 5773 5783 5784 5785 5789 5794 5799 5801 5803 5805 5807 5807 5806
5642 5638 5633 5627 5616 5608 5603 5602 5603 5604 5602 5602 5603 5604 5605 5605 5605 5606 5606 5606 5608 5611 5615 5619 5627 5635 5644 5647 5660 5674 5687 5704 5725 5737 5747 5753 5761 5771 5776 5779 5780 5787 5789 5789 5793 5796 5799 5800 5800
5639 5632 5626 5618 5610 5600 5591 5588 5589 5589 5591 5590 5590 5593 5594 5594 5595 5594 5595 5595 5596 5598 5601 5608 5612 5618 5627 5634 5643 5659 5673 5693 5712 5724 5732 5741 5752 5759 5766 5771 5771 5773 5776 5779 5782 5786 5791 5793 5793
5633 5625 5617 5609 5604 5594 5586 5573 5581 5580 5576 5576 5576 5576 5579 5581 5583 5580 5579 5578 5579 5585 5588 5593 5601 5607 5614 5622 5631 5647 5660 5678 5697 5711 5725 5735 5745 5749 5755 5763 5758 5764 5766 5770 5774 5778 5781 5784 5784
Wind_Speed
22 23 22 21 21 16 17 19 19 14 15 18 17 13 9 9 12 4 5 5 6 6 6 10 8 3 2 2 1 3 3 2 2 1 1 2 2 2 3 2 5 6 8 10 13 15 15 15 16
20 21 23 23 22 17 15 19 23 21 19 20 20 16 8 13 17 10 6 9 9 8 10 9 8 4 2 1 2 2 3 4 5 3 2 2 3 4 4 4 7 8 9 11 14 16 16 16 17
22 22 23 22 20 14 16 21 31 27 24 26 30 29 25 17 17 15 11 12 12 11 10 13 8 4 4 4 2 2 4 4 6 5 3 3 5 6 6 7 8 9 10 12 14 16 17 18 20
24 25 26 24 16 17 18 25 28 31 30 31 33 34 33 29 27 26 14 16 16 13 12 15 12 7 3 0 2 3 4 6 7 6 6 6 7 7 8 9 10 10 10 12 15 17 19 20 22
27 26 27 24 18 17 22 27 31 31 38 41 40 41 40 36 35 32 21 20 20 22 20 18 15 12 12 5 3 3 5 7 9 8 8 8 8 8 9 11 11 11 12 14 16 18 20 22 24
31 30 29 24 21 25 27 30 33 36 40 42 43 43 42 38 35 34 29 23 22 24 22 20 20 19 17 14 10 7 6 7 9 11 11 11 10 10 12 13 13 12 13 14 17 19 20 23 24
36 36 33 31 29 31 31 33 35 36 39 45 44 47 46 44 39 35 35 26 27 27 23 24 22 21 20 18 16 13 10 10 12 13 14 13 13 13 14 14 13 14 14 15 16 19 20 22 24
40 39 36 38 38 35 36 39 39 40 40 45 46 49 49 48 44 41 39 32 27 28 29 25 25 23 22 21 19 17 14 13 14 16 16 15 16 17 17 15 14 15 14 15 18 19 22 24 25
43 42 40 42 44 43 43 45 47 46 44 45 52 54 54 52 50 47 46 42 33 31 28 29 28 29 28 25 22 17 16 16 17 18 19 18 18 19 20 17 17 16 15 16 18 21 23 24 25
41 42 42 43 47 47 47 47 47 52 53 51 49 56 60 58 57 55 50 50 47 37 33 33 32 33 34 32 27 22 20 18 19 20 21 21 22 21 20 18 17 16 16 16 19 20 23 23 25
42 43 44 45 46 48 47 47 48 50 53 56 55 55 60 60 61 60 58 50 44 40 39 38 36 37 37 35 31 27 22 23 22 23 24 22 21 23 21 19 18 17 16 17 19 19 22 22 23
42 42 46 47 48 49 50 49 49 51 52 54 56 59 62 64 63 62 63 60 58 54 46 42 42 41 40 42 35 32 28 27 28 27 26 24 23 24 22 20 19 18 17 18 19 19 21 20 22
43 45 47 48 49 49 52 53 53 54 58 59 57 57 62 65 68 67 67 65 64 62 57 40 45 46 44 44 41 42 37 32 32 32 30 27 26 25 22 22 20 18 18 18 18 19 21 19 21
45 47 46 47 48 52 54 54 57 54 61 65 65 62 60 65 68 71 72 72 70 67 64 55 47 49 50 48 45 47 44 41 40 39 34 30 29 27 24 23 21 19 18 19 18 20 20 20 22
52 54 53 50 54 59 61 60 58 59 59 63 69 71 68 68 72 73 75 76 76 73 71 68 61 51 53 51 45 46 49 47 45 41 38 34 31 30 27 25 22 18 18 20 19 21 21 19 21
57 57 57 54 59 59 63 65 60 62 64 64 63 68 74 72 76 77 77 79 77 76 75 73 71 62 56 55 50 48 49 48 49 45 40 37 35 32 29 26 23 18 18 19 20 23 22 24 23
58 63 64 61 56 58 62 67 63 60 63 65 65 66 68 74 75 81 82 80 81 81 79 78 76 72 62 57 55 54 52 49 49 48 44 41 38 35 32 28 25 19 19 20 23 25 25 26 27
57 59 61 58 44 51 55 60 57 55 59 63 66 69 70 67 72 78 87 85 84 84 83 81 81 79 73 61 57 59 56 53 50 50 47 45 43 37 35 31 25 21 20 22 24 28 25 26 27
50 50 47 39 36 45 45 51 49 45 49 53 58 62 66 70 66 73 81 89 87 87 86 85 83 84 83 73 62 59 60 58 57 52 50 49 47 41 37 33 27 23 20 23 25 27 27 27 25
31 33 30 28 33 40 40 38 31 38 48 55 61 63 64 64 65 66 74 82 87 85 87 86 84 83 86 84 73 65 65 63 62 59 56 53 50 43 39 34 28 24 22 25 26 28 28 25 23
29 32 29 28 30 33 40 32 32 35 40 47 54 64 70 71 68 64 65 72 78 85 84 86 81 79 80 83 82 73 66 59 67 62 57 54 51 46 42 38 32 28 26 27 29 29 27 25 25
28 25 30 34 35 33 38 36 27 30 34 40 38 40 43 52 69 72 72 67 71 75 86 85 81 77 77 76 81 81 69 63 63 62 54 60 60 49 48 39 35 32 30 30 30 28 26 26 25
33 34 35 38 38 39 40 41 21 20 25 29 35 35 32 34 39 55 65 76 74 71 78 91 87 78 76 77 79 79 72 68 64 57 54 53 58 49 45 41 40 36 35 32 29 28 26 25 24
38 40 41 43 42 44 36 38 23 21 20 22 27 28 29 31 31 37 63 63 73 69 70 74 92 91 83 78 77 79 74 74 71 60 76 52 40 56 49 39 43 41 37 35 29 27 28 24 22
34 38 43 44 40 43 39 45 34 24 28 38 32 34 32 33 29 29 36 63 61 62 68 68 63 87 95 83 80 79 78 77 66 57 52 55 50 47 47 46 49 49 39 36 31 29 27 21 22
35 36 36 46 44 42 40 42 34 36 31 33 37 34 34 34 34 33 34 38 47 58 59 63 63 67 78 94 84 81 80 79 66 59 45 50 48 48 49 53 56 49 41 35 33 29 26 23 24
36 37 36 43 43 49 47 39 38 37 36 33 35 38 35 32 30 33 35 38 44 45 59 59 60 64 66 70 88 86 79 81 72 60 53 52 54 45 56 57 58 49 38 37 39 39 23 23 25
39 40 35 35 44 49 51 49 44 43 43 40 38 35 38 38 37 35 35 38 40 44 44 53 57 63 63 69 73 90 76 82 73 59 58 57 54 51 53 55 54 51 46 46 42 39 22 26 25
37 35 36 40 43 49 56 54 45 47 43 45 41 37 36 39 34 36 42 46 47 50 47 43 54 65 69 70 68 84 83 85 72 59 60 61 55 52 56 57 73 48 55 51 42 33 26 26 26
33 33 34 38 39 46 53 56 51 53 56 56 48 45 36 38 37 39 39 46 51 49 50 49 46 52 70 72 69 68 89 86 72 61 60 62 57 59 60 58 72 69 62 53 51 33 25 23 24
Wind_Direction
228 228 230 231 223 210 203 190 206 211 239 252 258 261 299 307 303 295 283 330 322 310 319 298 282 304 324 1 7 10 324 288 253 213 241 272 269 245 264 311 326 335 342 345 346 349 346 348 346
234 233 229 230 230 213 201 196 201 212 228 248 249 251 241 256 261 271 274 284 291 294 309 275 267 291 294 320 346 1 323 302 282 249 243 227 237 279 299 326 325 328 337 343 343 349 350 346 347
231 238 237 230 226 211 197 204 214 207 219 245 244 241 248 246 261 265 265 261 281 286 289 273 270 273 280 274 277 323 350 328 287 261 217 226 269 285 301 312 319 322 331 338 347 346 344 345 349
232 234 239 238 221 214 202 214 220 222 217 236 246 248 251 256 263 267 267 272 264 273 260 264 255 241 246 52 281 289 302 318 300 261 226 248 273 287 302 311 311 314 322 334 342 342 342 343 348
236 238 239 240 229 219 216 216 217 218 223 233 241 251 253 253 255 260 260 260 256 252 252 251 252 242 246 264 340 335 290 295 282 264 253 253 267 284 297 303 304 307 314 328 335 337 339 343 346
240 241 241 241 231 226 223 218 224 218 225 237 246 251 255 257 258 263 262 242 242 244 249 251 255 255 255 259 276 295 296 269 273 263 255 257 261 270 284 296 300 302 309 322 327 330 339 340 344
243 243 243 241 233 229 229 230 226 229 229 229 237 247 254 259 259 254 259 237 229 242 244 249 250 253 254 254 269 277 278 267 265 264 257 258 261 267 278 290 293 296 302 311 318 325 334 337 342
248 248 247 244 239 235 238 234 232 230 230 231 229 240 248 253 257 257 255 251 232 235 237 239 245 250 251 253 261 266 271 261 249 256 257 259 266 272 274 281 286 292 298 302 312 321 326 337 344
250 251 250 250 250 248 244 237 235 233 228 231 232 238 245 246 249 253 254 252 243 228 246 244 241 245 244 245 250 255 254 258 255 250 253 260 268 271 270 272 282 289 293 299 311 317 324 333 344
258 256 255 254 254 251 251 247 240 238 235 230 230 239 243 246 250 249 253 255 251 231 229 244 240 244 241 238 239 244 249 251 253 254 256 260 267 270 269 273 283 290 292 297 304 313 320 330 340
258 259 258 258 257 256 252 252 252 249 246 242 235 236 244 245 247 252 253 251 252 253 224 222 233 240 242 239 235 236 243 250 251 256 259 260 261 266 272 277 281 286 289 293 302 312 317 328 333
259 258 257 257 257 256 255 250 246 248 250 249 245 239 241 248 250 251 251 251 249 251 246 223 218 227 238 248 239 232 239 246 248 251 256 258 258 262 270 273 278 284 292 297 305 315 313 322 326
261 259 260 260 260 259 257 255 248 241 242 243 245 242 239 243 246 250 253 253 253 255 253 243 235 226 225 235 242 241 240 237 250 250 249 251 255 259 266 268 275 280 292 299 315 313 307 314 319
267 266 264 264 264 262 260 259 258 249 239 240 238 237 232 236 242 246 249 250 251 251 252 248 240 237 237 227 231 236 241 235 236 243 246 247 250 256 259 265 272 279 291 300 312 307 307 310 316
272 270 271 270 266 266 265 261 262 260 252 244 241 237 235 225 234 239 244 247 251 250 250 249 248 238 242 238 230 235 236 236 239 237 241 244 247 251 256 261 269 275 288 299 306 297 304 310 313
279 277 272 267 269 268 266 263 261 260 258 254 245 244 238 234 226 233 236 242 245 249 250 251 249 243 242 244 239 233 231 235 239 239 238 240 244 247 253 258 264 274 287 301 297 293 300 306 314
280 277 275 272 266 265 265 266 263 258 258 256 251 245 241 238 234 227 232 236 239 244 247 249 251 251 241 241 244 241 238 236 237 240 240 240 241 245 250 254 261 267 277 292 293 292 297 309 311
281 277 275 274 265 264 262 263 262 258 255 254 253 250 242 236 234 231 228 231 238 240 242 244 247 250 248 237 238 240 241 240 240 239 241 241 242 241 246 251 259 263 271 283 285 288 295 301 307
286 279 273 273 269 264 261 264 265 267 265 261 257 253 249 240 232 232 229 229 231 238 240 242 244 245 248 245 237 235 240 242 241 241 238 238 240 240 242 248 255 258 267 277 283 288 290 296 300
299 287 281 272 265 261 263 266 272 265 261 259 256 256 255 252 241 232 231 227 228 230 238 238 241 242 245 247 244 237 240 237 241 238 237 236 237 239 241 246 253 257 265 272 280 282 286 294 299
292 287 285 281 265 270 272 269 273 268 266 266 270 263 253 250 247 240 236 232 228 225 229 235 236 238 241 243 245 240 235 240 233 238 239 236 235 236 238 243 250 252 260 264 273 281 289 294 296
300 289 287 285 285 286 280 278 274 276 283 273 275 274 268 259 246 241 233 234 233 228 224 227 232 233 235 237 243 245 237 237 237 238 240 235 231 228 236 238 246 250 258 263 271 280 287 290 292
292 283 278 281 281 280 276 283 283 292 265 279 276 274 273 267 263 240 237 231 228 228 229 226 226 229 231 232 238 241 240 237 233 231 234 231 233 223 231 240 244 249 256 266 272 278 286 288 283
288 284 284 285 284 278 284 281 265 280 276 284 283 282 279 278 276 263 231 237 227 226 225 226 229 228 229 228 230 235 236 234 237 234 238 237 222 223 229 235 242 245 254 262 269 278 284 284 278
299 301 297 292 285 285 282 274 281 261 267 281 274 267 274 275 278 277 258 237 233 232 229 229 232 233 229 228 227 228 233 233 235 232 237 241 246 244 226 240 238 237 243 256 263 274 283 276 279
308 302 297 294 295 293 283 276 280 277 276 270 268 265 262 261 266 269 262 255 247 234 236 237 236 236 239 228 228 227 228 233 230 230 224 234 231 229 240 234 239 240 242 250 260 267 269 278 274
310 307 304 296 295 291 292 285 277 275 276 272 266 265 263 257 259 259 256 253 249 246 236 239 238 235 233 240 230 227 222 232 231 231 224 218 231 234 232 237 250 238 239 246 252 256 264 271 269
309 310 307 300 292 290 289 287 283 283 277 270 265 256 260 257 259 261 253 244 240 243 244 236 229 230 233 236 233 231 226 231 229 228 222 216 218 226 233 241 245 238 240 242 244 256 264 259 264
308 305 300 294 292 291 294 292 292 287 281 277 274 267 260 264 271 271 262 253 245 248 248 243 233 224 224 230 228 231 228 230 224 224 223 215 213 219 230 237 240 245 240 244 239 248 250 248 257
312 315 312 305 297 286 285 291 282 277 276 282 278 270 261 259 266 278 268 261 257 239 245 247 240 232 225 223 228 226 228 225 223 219 221 216 215 218 224 233 250 240 243 248 245 242 239 244 256